STARLINK-35938

Last updated on Wed Dec 31 2025 00:02:07 GMT+0000 (Coordinated Universal Time)

1 66644U 25271AD 25364.31082557 .00128724 00000+0 31213-2 0 9999 2 66644 53.1592 103.6696 0000918 211.3414 148.7537 15.40129659 6922
UTC large
Height (km)
Speed (km/s)
/
Latitude / Longitude
Inclination (degrees)
Orbital Period (minutes)
Azimuth
Elevation
Range (km)
Doppler Factor

Next 0 passes for location: London (51.5072 / 0.1276)

Sorry there are no passes over London.